TimeEDT,TemperatureF,Dew PointF,Humidity,Sea Level PressureIn,VisibilityMPH,Wind Direction,Wind SpeedMPH,Gust SpeedMPH,PrecipitationIn,Events,Conditions,WindDirDegrees,DateUTC
12:15 AM,61.5,57.6,87,30.27,10.0,ESE,3.5,-,N/A,,Clear,120,2013-08-25 04:15:00
12:34 AM,63.1,58.1,84,30.28,10.0,Calm,Calm,-,N/A,,Clear,0,2013-08-25 04:34:00
12:55 AM,65.7,58.1,77,30.28,10.0,SSE,3.5,-,N/A,,Clear,150,2013-08-25 04:55:00
1:15 AM,66.0,57.7,75,30.27,10.0,Calm,Calm,-,N/A,,Clear,0,2013-08-25 05:15:00
1:34 AM,65.1,57.6,76,30.27,10.0,Calm,Calm,-,N/A,,Clear,0,2013-08-25 05:34:00
1:55 AM,64.8,57.6,77,30.28,10.0,Calm,Calm,-,N/A,,Clear,0,2013-08-25 05:55:00
2:14 AM,62.4,55.9,79,30.28,10.0,Calm,Calm,-,N/A,,Clear,0,2013-08-25 06:14:00
2:35 AM,58.8,55.4,88,30.28,10.0,Calm,Calm,-,N/A,,Clear,0,2013-08-25 06:35:00
2:54 AM,59.9,56.3,88,30.29,10.0,Calm,Calm,-,N/A,,Clear,0,2013-08-25 06:54:00
3:15 AM,59.2,54.9,86,30.28,10.0,Calm,Calm,-,N/A,,Clear,0,2013-08-25 07:15:00
3:35 AM,59.4,55.0,86,30.28,10.0,Calm,Calm,-,N/A,,Clear,0,2013-08-25 07:35:00
3:54 AM,59.2,54.5,84,30.28,10.0,Calm,Calm,-,N/A,,Clear,0,2013-08-25 07:54:00
4:15 AM,57.9,54.7,89,30.28,10.0,Calm,Calm,-,N/A,,Clear,0,2013-08-25 08:15:00
4:35 AM,58.5,55.6,90,30.28,10.0,Calm,Calm,-,N/A,,Clear,0,2013-08-25 08:35:00
4:54 AM,57.9,54.9,90,30.28,10.0,Calm,Calm,-,N/A,,Clear,0,2013-08-25 08:54:00
5:15 AM,57.2,54.5,91,30.29,10.0,Calm,Calm,-,N/A,,Clear,0,2013-08-25 09:15:00
5:34 AM,56.8,54.3,91,30.29,7.0,Calm,Calm,-,N/A,,Clear,0,2013-08-25 09:34:00
5:55 AM,56.7,54.3,92,30.28,10.0,Calm,Calm,-,N/A,,Clear,0,2013-08-25 09:55:00
6:15 AM,57.0,54.1,90,30.28,10.0,Calm,Calm,-,N/A,,Clear,0,2013-08-25 10:15:00
6:34 AM,56.7,54.0,91,30.29,10.0,Calm,Calm,-,N/A,,Clear,0,2013-08-25 10:34:00
6:55 AM,55.8,53.2,91,30.29,10.0,Calm,Calm,-,N/A,,Clear,0,2013-08-25 10:55:00
7:15 AM,56.3,53.8,91,30.29,10.0,Calm,Calm,-,N/A,,Clear,0,2013-08-25 11:15:00
7:35 AM,57.6,55.4,92,30.29,10.0,Calm,Calm,-,N/A,,Clear,0,2013-08-25 11:35:00
7:55 AM,59.4,57.0,92,30.30,10.0,Calm,Calm,-,N/A,,Clear,0,2013-08-25 11:55:00
8:14 AM,61.5,58.5,90,30.30,10.0,Calm,Calm,-,N/A,,Clear,0,2013-08-25 12:14:00
8:35 AM,63.3,59.5,87,30.30,10.0,SSW,5.8,-,N/A,,Clear,200,2013-08-25 12:35:00
8:55 AM,64.8,60.3,85,30.30,10.0,SSW,5.8,-,N/A,,Clear,210,2013-08-25 12:55:00
9:14 AM,66.4,61.2,83,30.30,10.0,SSW,5.8,-,N/A,,Clear,200,2013-08-25 13:14:00
9:35 AM,68.4,61.5,79,30.31,10.0,SSW,4.6,-,N/A,,Clear,210,2013-08-25 13:35:00
9:55 AM,70.5,61.7,74,30.31,10.0,SW,4.6,-,N/A,,Clear,220,2013-08-25 13:55:00
10:14 AM,71.8,62.1,71,30.31,10.0,SSW,4.6,-,N/A,,Clear,200,2013-08-25 14:14:00
10:35 AM,75.0,62.8,66,30.31,10.0,SSW,3.5,-,N/A,,Clear,210,2013-08-25 14:35:00
10:55 AM,76.6,62.6,62,30.31,10.0,WSW,3.5,-,N/A,,Clear,250,2013-08-25 14:55:00
11:14 AM,77.7,62.2,59,30.30,10.0,SSW,4.6,-,N/A,,Clear,200,2013-08-25 15:14:00
11:35 AM,79.7,62.6,56,30.30,10.0,SSW,6.9,-,N/A,,Clear,210,2013-08-25 15:35:00
11:55 AM,80.6,62.4,54,30.30,10.0,SW,8.1,-,N/A,,Clear,230,2013-08-25 15:55:00
12:15 PM,81.5,62.1,52,30.29,10.0,SSW,5.8,-,N/A,,Clear,210,2013-08-25 16:15:00
12:35 PM,82.4,63.0,52,30.28,10.0,SW,8.1,-,N/A,,Clear,230,2013-08-25 16:35:00
12:55 PM,83.1,63.3,51,30.27,10.0,SSW,6.9,-,N/A,,Clear,210,2013-08-25 16:55:00
1:15 PM,84.2,63.0,49,30.27,10.0,SW,9.2,-,N/A,,Clear,220,2013-08-25 17:15:00
1:35 PM,84.2,61.5,46,30.26,10.0,West,10.4,-,N/A,,Clear,260,2013-08-25 17:35:00
1:54 PM,84.6,62.4,47,30.26,10.0,West,8.1,18.4,N/A,,Clear,270,2013-08-25 17:54:00
2:15 PM,85.5,62.4,46,30.26,10.0,West,8.1,-,N/A,,Clear,270,2013-08-25 18:15:00
2:35 PM,85.1,61.3,45,30.25,10.0,West,6.9,-,N/A,,Clear,270,2013-08-25 18:35:00
2:54 PM,86.0,62.8,46,30.25,10.0,SW,6.9,-,N/A,,Clear,230,2013-08-25 18:54:00
3:15 PM,86.4,62.8,45,30.24,10.0,WSW,6.9,-,N/A,,Clear,250,2013-08-25 19:15:00
3:35 PM,86.0,63.3,47,30.23,10.0,SW,5.8,-,N/A,,Clear,230,2013-08-25 19:35:00
3:54 PM,86.7,63.3,45,30.23,10.0,WSW,8.1,-,N/A,,Clear,240,2013-08-25 19:54:00
4:15 PM,86.5,62.6,45,30.22,10.0,SW,8.1,-,N/A,,Clear,230,2013-08-25 20:15:00
4:34 PM,86.9,63.5,45,30.21,10.0,WSW,9.2,-,N/A,,Clear,250,2013-08-25 20:34:00
4:55 PM,86.4,63.0,45,30.21,10.0,SSW,10.4,-,N/A,,Clear,210,2013-08-25 20:55:00
5:15 PM,86.4,63.3,46,30.20,10.0,SW,8.1,-,N/A,,Clear,230,2013-08-25 21:15:00
5:34 PM,85.6,62.4,46,30.20,10.0,SW,6.9,-,N/A,,Clear,220,2013-08-25 21:34:00
5:55 PM,85.6,63.5,47,30.20,10.0,SSW,6.9,-,N/A,,Clear,210,2013-08-25 21:55:00
6:15 PM,85.1,61.9,46,30.20,10.0,SW,8.1,-,N/A,,Clear,230,2013-08-25 22:15:00
6:35 PM,84.6,62.8,48,30.19,10.0,SW,10.4,-,N/A,,Clear,220,2013-08-25 22:35:00
6:55 PM,83.8,62.2,48,30.18,10.0,SW,9.2,-,N/A,,Clear,220,2013-08-25 22:55:00
7:15 PM,83.1,62.1,49,30.18,10.0,SW,6.9,-,N/A,,Clear,220,2013-08-25 23:15:00
7:35 PM,81.5,64.0,55,30.18,10.0,SSW,8.1,-,N/A,,Clear,200,2013-08-25 23:35:00
7:55 PM,79.9,64.4,59,30.18,10.0,SW,4.6,-,N/A,,Clear,230,2013-08-25 23:55:00
8:14 PM,77.9,64.6,63,30.18,10.0,SSW,4.6,-,N/A,,Clear,210,2013-08-26 00:14:00
8:35 PM,76.6,64.4,66,30.18,10.0,SW,4.6,-,N/A,,Clear,220,2013-08-26 00:35:00
8:55 PM,75.9,64.0,67,30.19,10.0,SW,3.5,-,N/A,,Clear,220,2013-08-26 00:55:00
9:14 PM,76.1,63.5,65,30.20,10.0,Calm,Calm,-,N/A,,Clear,0,2013-08-26 01:14:00
9:35 PM,75.0,63.5,67,30.20,10.0,SSW,3.5,-,N/A,,Clear,210,2013-08-26 01:35:00
9:55 PM,73.4,63.9,72,30.21,10.0,Calm,Calm,-,N/A,,Clear,0,2013-08-26 01:55:00
10:14 PM,72.5,63.9,74,30.21,10.0,Calm,Calm,-,N/A,,Clear,0,2013-08-26 02:14:00
10:35 PM,71.8,63.9,76,30.22,10.0,Calm,Calm,-,N/A,,Clear,0,2013-08-26 02:35:00
10:55 PM,70.9,63.7,78,30.22,10.0,South,3.5,-,N/A,,Clear,190,2013-08-26 02:55:00
11:15 PM,69.8,63.5,80,30.21,10.0,SSW,4.6,-,N/A,,Clear,200,2013-08-26 03:15:00
11:35 PM,70.0,63.9,81,30.22,10.0,SW,3.5,-,N/A,,Clear,220,2013-08-26 03:35:00
11:55 PM,71.4,63.7,76,30.22,10.0,SW,3.5,-,N/A,,Clear,220,2013-08-26 03:55:00